#timestamp,LO_Frequency,Hit,StdDev 
1629165615.6,286047001.8,N
1629165635.4,286047003.5,N
1629165655.2,286047003.8,N
1629165675.1,286047006.0,N
1629165676.0,286047006.0,N
1629165695.8,286047007.5,N
1629165715.6,286047003.1,N
1629165735.5,286047002.2,N
1629165755.3,286047000.1,N
1629165775.2,286047000.2,N
1629165795.9,286047000.0,N
1629165815.7,286047000.7,N
1629165835.6,286046998.6,N
1629165855.4,286046998.3,N
1629165875.2,286047002.7,N
1629165895.1,286047000.8,N
1629165896.0,286047000.8,N
1629165915.8,286047002.5,N
1629165935.7,286047002.4,N
1629165955.5,286046999.3,N
1629165975.3,286046996.5,N
1629165995.2,286046998.9,N
1629166015.0,286046996.9,N
1629166015.9,286046996.9,N
1629166035.7,286046999.3,N
1629166055.6,286046999.2,N
1629166075.4,286046998.9,N
1629166095.3,286046996.6,N
1629166115.1,286046998.4,N
1629166116.0,286046998.4,N
1629166135.8,286046999.2,N
1629166155.7,286047001.2,N
1629166175.5,286047003.6,N
1629166195.3,286047003.7,N
1629166215.2,286047003.1,N
1629166235.0,286047005.6,N
1629166235.9,286047005.6,N
1629166255.8,286047005.6,N
1629166275.6,286047003.5,N
1629166295.4,286047001.9,N
1629166315.3,286047005.9,N
1629166335.1,286047004.5,N
1629166355.8,286047003.5,N
1629166375.7,286047006.0,N
1629166395.5,286047004.3,N
1629166415.4,286047001.6,N
1629166435.2,286047004.1,N
1629166455.0,286047003.2,N
1629166455.9,286047003.2,N
1629166475.8,286047003.3,N
1629166495.6,286047004.8,N
1629166515.4,286047004.7,N
1629166535.3,286047007.0,N
1629166555.1,286047009.1,Y
1629166575.9,286047003.2,P
1629166595.7,286047001.5,P
1629166615.5,286047002.2,P
1629166635.4,286047002.3,Y
1629166655.2,286046996.5,P
1629166675.0,286046999.9,N
1629166676.0,286046999.9,N
1629166695.8,286047001.3,N
1629166715.6,286047003.1,N
1629166735.5,286047005.4,N
1629166755.3,286047004.8,N
1629166775.1,286047004.5,N
1629166795.9,286047005.4,N
1629166815.7,286047005.2,N
1629166835.5,286047004.2,N
1629166855.4,286047002.3,N
1629166875.2,286047002.7,N
1629166895.1,286046998.6,N
1629166896.0,286046998.6,N
1629166915.8,286047000.3,N
1629166935.6,286046999.8,N
1629166955.5,286047003.5,N
1629166975.3,286047003.3,N
1629166995.1,286047004.1,N
1629167015.9,286047005.1,N
1629167035.7,286047004.8,N
1629167055.6,286047005.4,N
1629167075.4,286047004.6,N
1629167095.2,286047010.8,Y
1629167115.1,286047010.8,P
1629167116.0,286047010.8,N
1629167135.8,286047007.6,N
1629167155.7,286047005.4,N
1629167175.5,286047005.3,N
1629167195.3,286047004.7,N
1629167215.2,286047005.0,N
1629167235.9,286047004.4,N
1629167255.7,286047007.2,N
1629167275.6,286047008.2,Y
1629167295.4,286047001.6,P
1629167315.3,286046999.9,N
1629167335.1,286046999.4,N
1629167336.0,286046999.4,N
1629167355.8,286046995.3,N
1629167375.7,286046995.8,N
1629167395.5,286046992.3,N
1629167415.3,286046993.9,N
1629167435.2,286046994.5,N
1629167455.0,286046995.8,N
1629167455.9,286046995.8,N
1629167475.8,286046996.5,N
1629167495.6,286046999.4,N
1629167515.4,286046995.4,N
1629167535.3,286046999.5,N
1629167555.1,286047000.4,N
1629167575.8,286046999.3,N
1629167595.7,286046997.2,N
1629167615.5,286046995.6,N
1629167635.4,286046994.2,N
1629167655.2,286046993.8,N
1629167675.0,286046992.5,N
1629167675.9,286046992.5,N
1629167695.8,286046995.8,N
1629167715.6,286046990.5,N
1629167735.5,286046988.5,Y
1629167755.3,286046995.5,P
1629167775.1,286046999.2,N
1629167795.9,286046998.1,N
1629167815.7,286046995.2,Y
1629167835.6,286046998.8,P
1629167855.4,286046998.7,N
1629167875.2,286046996.5,P
1629167895.1,286046995.3,Y
1629167896.0,286046995.3,P
1629167915.8,286046996.9,N
1629167935.6,286047002.5,N
1629167955.5,286047001.3,N
1629167975.3,286047002.7,N
1629167995.2,286046998.8,N
1629168015.9,286046999.9,N
1629168035.7,286047003.2,N
1629168055.6,286047002.6,N
1629168075.4,286046999.9,N
1629168095.2,286047001.0,N
1629168115.1,286046999.3,N
1629168116.0,286046999.3,N
1629168135.8,286046996.9,N
1629168155.7,286046999.4,N
1629168175.5,286046998.5,N
1629168195.3,286047002.3,N
1629168215.2,286047001.6,N
1629168235.9,286047011.9,Y
1629168255.7,286047003.9,P
1629168275.6,286047003.8,N
1629168295.4,286047006.0,P
1629168315.3,286047007.0,Y
1629168335.1,286047002.5,P
1629168336.0,286047002.5,P
1629168355.8,286046999.8,N
1629168375.7,286047002.4,N
1629168395.5,286046998.3,N
1629168415.3,286047001.3,N
1629168435.2,286047004.6,N
1629168455.0,286047004.1,N
1629168455.9,286047004.1,N
1629168475.8,286046998.2,N
1629168495.6,286047000.9,N
1629168515.4,286047000.4,N
1629168535.3,286047000.7,N
1629168555.1,286047000.6,N
1629168575.8,286046997.7,N
1629168595.7,286047001.1,N
1629168615.5,286047001.0,N
1629168635.4,286047001.8,N
1629168655.2,286047000.3,N
1629168675.0,286046999.3,N
1629168675.9,286046999.3,N
1629168695.8,286047000.3,N
1629168715.6,286047000.6,N
1629168735.4,286047001.1,N
1629168755.3,286046996.5,N
1629168775.1,286047001.1,N
1629168795.9,286047000.7,N
1629168815.7,286046999.1,N
1629168835.5,286047000.8,N
1629168855.4,286046998.3,N
1629168875.2,286046999.2,N
1629168895.0,286046995.3,N
1629168895.9,286046995.3,N
1629168915.8,286046995.0,N
1629168935.6,286046997.2,N
1629168955.5,286046997.2,N
1629168975.3,286046996.5,N
1629168995.1,286047000.5,N
1629169015.9,286047004.3,N
1629169035.7,286047005.8,N
1629169055.5,286047005.5,N
1629169075.4,286047003.4,N
1629169095.2,286047003.4,N
1629169115.1,286047002.0,N
1629169116.0,286047002.0,N
1629169135.8,286047001.8,N
1629169155.6,286047002.5,N
1629169175.5,286047002.0,N
1629169195.3,286047003.2,N
